Temp
23 22 22 23 24 26 26 27 28 29 31 29 28 28 26 27 27 26 25 25 25 25 25 25 25 25 24 23 23 23 23 23 23 22 22 22 23 23 24 25 26 26 26 25
22 23 24 24 24 25 26 26 26 28 29 30 29 28 26 27 27 27 26 26 25 26 25 25 25 25 24 24 23 23 24 24 24 24 24 23 24 24 24 25 25 25 25 25
25 24 25 26 24 25 24 25 26 28 30 29 28 26 26 27 27 28 27 27 26 26 26 25 25 25 25 24 23 23 24 24 24 24 23 22 23 24 24 24 25 25 25 25
23 26 26 24 25 25 22 25 28 28 27 26 28 25 26 26 27 27 27 27 27 27 27 26 26 26 25 25 24 24 23 23 24 24 23 23 23 22 23 24 25 25 25 25
24 24 26 26 26 25 27 27 27 28 27 27 27 26 25 25 25 27 27 27 28 28 27 27 26 26 26 26 24 24 24 24 24 24 24 23 23 24 24 24 25 25 25 25
25 25 27 26 27 26 27 28 24 23 22 24 26 26 24 24 27 27 28 28 28 28 28 28 28 27 27 26 25 24 23 23 23 23 24 23 23 23 24 24 25 25 25 25
26 26 27 27 26 26 27 23 22 23 23 25 24 25 29 26 28 29 29 29 29 29 28 28 27 26 26 26 25 24 23 23 23 23 23 23 24 24 24 25 25 25 25 25
24 24 26 26 26 25 24 23 20 22 22 25 23 25 26 29 28 30 30 30 30 29 29 29 28 28 26 26 25 24 23 23 23 23 23 24 24 24 24 25 25 26 26 26
22 24 27 28 27 28 23 25 24 22 22 22 23 25 28 29 28 28 30 30 30 30 30 29 29 29 28 27 26 24 24 23 23 23 23 23 23 23 23 24 25 26 26 26
25 24 25 28 28 27 25 24 25 19 24 23 23 25 26 26 29 28 27 29 30 30 30 30 29 29 29 28 26 25 25 24 23 23 23 23 23 24 24 24 25 26 26 25
18 23 26 25 26 27 25 24 23 23 20 23 22 25 24 27 27 30 29 29 30 29 30 30 30 30 29 29 27 26 25 24 24 23 23 23 23 23 23 23 25 26 26 25
17 17 22 24 27 28 29 27 23 24 23 20 21 26 28 27 28 27 28 27 27 28 29 30 30 30 30 29 28 26 25 25 24 24 23 23 23 23 23 23 24 26 26 25
16 16 20 23 25 26 25 26 24 27 21 25 25 26 31 28 28 28 27 26 26 26 27 28 28 29 29 29 28 27 26 25 25 24 23 23 23 22 23 23 24 25 26 25
15 14 17 19 21 20 21 25 25 26 26 27 26 26 28 28 27 28 26 26 26 26 26 26 27 29 29 29 28 27 26 26 25 25 24 23 23 23 23 23 23 24 26 25
13 15 16 17 18 19 21 22 23 24 27 27 28 28 27 26 25 27 27 25 27 27 26 25 26 27 26 28 28 27 26 26 25 25 24 24 23 23 23 23 23 23 24 25
11 15 14 16 19 20 20 22 24 25 25 25 27 26 25 27 25 26 26 26 26 26 26 26 26 27 26 27 27 27 26 25 25 25 24 24 24 23 23 23 23 23 23 23
11 12 14 15 17 18 20 24 24 24 25 26 25 26 27 26 25 26 27 26 26 26 25 25 25 27 27 28 28 27 26 26 25 25 24 24 24 23 23 23 22 23 22 23
11 11 12 13 16 18 23 22 24 26 27 26 26 27 27 28 29 28 28 29 27 26 25 24 26 27 29 29 29 28 27 26 25 25 24 24 23 23 23 22 22 22 22 22
12 11 12 14 14 19 21 21 20 19 21 26 27 27 26 27 26 27 25 24 26 26 24 24 26 28 28 30 30 29 27 26 25 24 24 24 23 23 23 22 22 22 22 22
12 13 13 12 15 17 21 19 20 20 19 21 22 27 28 24 25 28 26 25 24 25 24 24 26 27 28 29 29 28 26 25 24 24 24 24 23 23 23 23 23 22 22 22
10 11 11 13 15 16 19 18 19 22 23 18 18 18 24 26 29 29 25 26 25 25 26 25 25 23 24 27 28 26 26 25 25 25 24 24 24 23 23 23 23 23 22 22
10 11 10 11 13 15 19 19 21 18 17 18 18 18 19 22 23 25 24 23 23 22 22 21 20 19 24 26 27 25 24 26 26 25 24 24 24 23 23 23 23 22 22 22
11 12 13 14 15 15 17 17 17 16 18 18 17 17 19 22 22 22 21 20 20 20 20 20 20 21 21 23 25 24 23 26 27 26 25 24 24 23 24 23 22 22 22 22
12 12 13 14 16 17 17 16 16 17 17 17 17 17 19 20 19 20 20 20 20 19 20 20 21 20 19 20 21 21 23 25 26 26 26 25 24 24 23 23 22 22 22 22
10 10 12 13 16 16 16 16 15 17 17 17 17 16 16 18 17 18 18 18 18 18 18 19 18 17 17 20 21 22 22 23 22 23 24 24 25 24 23 23 22 22 22 22
9 10 10 12 15 16 15 14 15 16 16 16 16 17 16 16 16 17 16 17 18 17 17 18 18 18 17 18 18 18 20 21 22 20 21 23 23 22 20 18 19 21 22 22
Height
744 761 760 758 757 756 762 764 764 753 735 744 751 750 749 743 746 752 756 761 762 761 764 771 775 781 786 790 794 797 802 806 811 815 819 822 825 828 830 831 834 837 839 840
753 747 744 746 752 754 758 765 768 753 740 741 746 751 746 742 737 737 746 755 755 755 763 764 769 775 779 783 786 790 795 800 804 809 813 817 820 823 827 829 832 834 836 837
736 735 734 741 750 757 760 763 762 761 745 742 750 762 752 741 738 740 741 741 748 752 753 758 762 765 770 776 779 783 787 792 798 803 809 813 817 820 822 825 827 830 833 835
736 723 727 740 744 746 772 746 746 753 765 782 750 790 757 744 743 737 738 740 741 745 748 752 756 761 764 765 771 778 784 789 793 798 803 806 809 812 815 819 823 827 829 831
723 723 729 735 729 736 743 734 745 749 761 765 762 778 757 743 750 740 731 730 731 733 738 741 744 747 751 760 764 769 774 780 785 790 794 799 804 806 810 814 819 822 825 827
711 703 709 717 717 723 726 735 753 763 774 787 763 769 765 752 733 730 722 723 723 725 727 732 734 743 749 756 761 764 769 772 778 783 788 792 797 801 805 809 813 817 820 823
712 709 700 702 724 721 728 757 791 792 790 772 752 765 730 721 710 708 709 710 710 713 719 724 730 734 738 744 749 754 760 765 770 774 780 785 790 795 799 803 807 811 815 817
725 736 704 697 706 724 736 751 787 797 792 768 758 752 731 699 698 694 691 689 696 705 707 711 715 722 727 731 738 745 751 756 762 766 771 777 782 787 792 797 802 805 808 812
724 718 683 684 691 699 735 741 735 766 766 777 758 731 704 695 698 695 691 689 693 695 697 699 703 709 714 722 727 733 740 746 753 758 763 769 775 781 785 790 794 799 803 807
693 714 688 682 685 692 707 716 749 774 775 781 758 742 727 709 696 693 697 690 683 681 686 686 693 699 704 709 713 723 730 734 741 747 753 760 766 771 778 783 787 791 796 801
709 702 696 689 695 694 711 719 729 733 759 764 774 737 703 693 689 680 678 675 672 673 673 675 679 683 690 700 707 711 720 727 734 740 746 753 759 764 771 775 780 784 790 795
717 724 712 699 678 673 677 694 717 736 747 753 752 719 672 674 668 673 672 671 667 665 662 664 666 674 683 689 698 702 710 717 721 727 736 742 749 755 761 765 771 777 782 788
722 731 727 710 693 681 693 687 696 695 722 719 737 707 665 670 673 670 672 667 665 663 660 661 666 669 672 679 686 693 700 703 712 720 726 734 740 746 751 756 763 769 775 779
723 737 734 729 719 716 712 690 688 693 705 704 700 702 683 676 675 668 667 662 658 658 656 656 659 659 662 667 672 679 686 695 703 711 718 723 727 733 739 746 753 758 764 770
733 735 731 726 720 714 708 702 695 696 686 694 687 688 684 680 677 666 656 656 656 655 653 653 651 652 654 659 665 671 677 686 693 702 708 709 716 724 730 736 742 747 754 757
743 738 737 732 713 704 705 694 686 685 686 688 679 683 666 658 659 660 657 655 655 650 644 644 644 646 649 652 656 660 667 674 682 689 693 703 710 715 720 726 733 739 743 750
748 741 741 736 720 714 701 677 676 674 668 670 680 669 658 658 655 653 649 648 648 644 640 639 639 635 636 640 644 652 658 666 673 676 681 690 698 704 709 716 723 728 732 741
747 745 742 741 726 721 677 661 656 653 649 651 653 651 649 644 631 629 628 629 634 634 633 630 626 626 627 630 637 641 650 654 659 663 673 680 687 693 701 708 711 716 722 726
735 744 740 733 730 691 676 668 671 678 662 639 642 642 640 634 632 627 623 623 621 618 619 618 615 614 617 622 627 635 644 651 656 661 668 670 675 683 690 694 698 705 713 718
726 727 731 732 721 705 668 666 660 663 673 646 644 628 627 635 653 636 609 611 612 610 611 611 611 613 616 617 622 630 636 641 647 652 653 658 665 672 677 680 689 697 704 709
737 735 729 721 713 690 665 662 654 671 650 644 648 642 631 626 613 604 603 605 605 606 608 610 611 613 616 618 622 626 631 633 632 641 649 654 659 663 666 676 683 689 698 703
727 727 728 727 713 694 659 659 662 652 645 643 639 631 626 617 604 604 605 607 608 607 607 610 611 613 613 616 621 625 628 628 640 645 649 653 652 654 660 666 674 686 693 701
714 702 699 696 681 663 653 655 649 650 645 637 634 625 615 610 605 605 610 613 613 610 610 612 613 615 617 621 624 629 636 637 639 642 643 645 650 655 663 664 670 671 680 692
697 691 689 685 660 655 653 651 648 645 639 632 628 619 606 606 611 611 611 614 618 616 616 618 617 619 621 623 624 628 629 630 632 635 637 642 649 654 659 662 662 669 670 655
703 701 685 677 658 653 649 647 645 642 633 631 624 612 614 612 616 614 616 617 621 621 623 623 623 627 628 627 628 628 628 628 629 632 635 637 640 644 649 653 656 661 665 669
688 684 687 668 652 650 648 646 643 640 631 631 623 616 622 621 616 616 618 618 619 620 620 621 623 627 629 630 631 630 630 630 630 629 629 629 632 637 642 647 651 653 657 662
Wind_Speed
6 4 14 11 7 5 5 5 4 3 3 6 10 3 6 16 15 17 18 17 18 20 21 25 27 26 28 30 33 36 35 36 33 33 32 31 29 25 20 17 17 17 17 20
4 20 11 9 8 9 6 5 7 4 7 2 3 9 9 15 22 22 20 18 20 18 16 22 27 28 29 34 38 40 42 40 39 37 36 30 32 30 24 21 20 19 18 21
19 7 12 13 7 11 6 12 6 4 3 1 4 6 5 12 4 13 16 18 17 18 19 18 23 32 33 33 37 41 45 44 43 41 35 30 26 30 29 27 24 21 19 18
7 8 19 8 13 10 9 8 5 7 4 4 4 5 5 8 20 16 15 18 18 19 15 15 20 25 33 38 40 41 40 40 43 42 36 34 29 26 31 34 29 26 22 21
11 12 14 16 11 8 8 9 9 6 5 3 4 1 6 7 11 17 18 19 20 21 19 20 19 34 38 35 38 41 44 45 44 45 43 40 32 32 32 33 31 26 25 23
8 5 13 11 7 10 7 4 5 5 4 6 9 8 5 7 14 17 18 18 20 20 21 19 29 27 30 32 33 35 37 43 43 44 46 41 36 32 32 29 29 27 24 23
6 13 3 6 7 5 6 8 2 2 4 9 8 7 14 9 14 20 24 22 22 22 21 21 19 19 29 33 36 36 38 39 42 46 45 44 43 40 39 37 31 30 28 26
11 7 17 6 10 10 8 10 6 8 5 5 7 9 6 13 11 17 19 25 23 21 22 23 24 26 31 37 37 37 38 39 40 44 45 47 46 40 42 39 37 33 33 31
8 10 4 10 5 17 6 10 9 4 1 2 5 7 6 6 9 12 18 17 16 20 22 24 24 30 34 34 38 40 39 40 40 42 44 42 44 40 37 39 41 38 34 30
4 1 6 18 6 9 11 9 4 1 6 6 5 4 6 8 14 14 10 15 18 18 20 22 21 27 35 38 41 41 42 43 43 46 44 44 45 46 43 41 42 40 37 33
6 3 3 9 11 19 4 6 3 6 6 6 0 7 8 10 13 15 17 17 18 16 19 20 21 30 37 36 34 40 40 39 40 39 40 40 39 41 41 42 44 41 38 36
2 2 7 6 2 7 22 12 8 6 10 5 4 9 4 10 9 12 12 11 11 14 17 19 21 22 27 33 33 37 39 39 43 42 41 41 42 42 41 44 45 42 39 37
5 2 2 5 6 2 5 10 8 14 2 16 8 8 14 3 8 10 10 9 8 10 10 10 10 15 18 30 34 35 38 42 39 39 40 39 39 40 41 43 42 44 40 38
2 2 3 4 1 4 6 5 9 15 13 15 18 11 4 6 8 8 10 10 10 9 11 9 10 16 16 29 35 35 38 39 38 38 38 39 41 43 43 43 43 45 44 42
4 0 2 2 11 6 11 14 12 12 21 15 17 21 11 8 10 13 15 8 7 10 8 9 10 13 15 22 30 33 34 36 38 37 38 42 40 42 41 40 42 43 44 46
4 1 1 3 9 12 11 13 15 14 11 8 20 14 8 14 11 9 11 9 10 11 11 9 11 11 13 19 28 33 35 38 40 40 42 38 37 39 40 40 40 41 43 42
3 3 2 4 4 10 13 9 14 8 8 11 16 10 8 9 11 14 16 13 13 13 12 11 12 15 16 25 32 31 35 35 39 41 39 39 39 39 39 38 38 40 40 41
2 2 3 4 4 7 4 8 8 17 18 15 9 7 12 15 17 17 17 18 15 12 11 11 11 11 21 29 29 33 30 37 38 39 37 35 38 40 37 36 39 41 39 41
15 4 3 4 5 11 18 4 5 2 8 8 15 10 9 14 9 11 8 10 14 12 10 10 13 18 20 25 29 29 26 28 30 30 33 37 40 38 37 39 41 39 36 37
12 15 4 1 6 7 1 2 8 3 6 10 7 16 17 7 7 9 10 8 12 11 8 8 13 10 15 25 28 27 25 29 30 34 39 41 41 40 39 41 39 37 35 34
4 6 15 12 6 7 4 9 5 7 7 16 10 14 13 10 14 14 4 6 5 4 2 2 1 4 4 11 22 23 24 26 39 35 32 33 35 38 41 34 33 33 31 28
8 8 5 7 6 18 2 5 3 4 8 12 17 17 16 11 8 5 6 5 5 7 7 11 10 11 8 6 17 14 18 26 18 22 24 28 34 36 34 34 29 27 26 26
8 9 4 10 7 6 4 8 7 7 11 10 16 16 14 10 6 6 7 7 6 7 6 10 12 12 18 12 6 5 3 2 11 18 25 28 27 27 27 28 29 29 30 27
6 5 6 9 9 9 7 4 4 7 6 11 11 6 4 9 7 9 10 9 7 6 7 10 14 11 12 21 24 18 10 4 3 15 21 21 22 21 23 25 30 29 32 37
7 9 7 8 17 3 5 2 3 7 6 7 3 13 11 10 10 10 9 8 6 7 7 11 11 10 11 16 17 19 19 14 10 1 10 17 22 25 24 22 23 26 26 24
6 10 6 9 9 5 2 3 4 4 3 7 5 14 10 9 11 11 10 7 8 8 10 11 13 13 13 16 16 12 11 13 11 6 3 12 18 20 22 20 10 19 24 25
Wind_Direction
180 175 214 196 181 188 195 211 196 270 283 142 220 255 201 174 186 183 190 194 197 204 204 200 200 198 196 200 203 209 208 211 211 213 217 221 224 226 232 220 218 222 226 226
118 222 205 178 194 194 207 245 252 289 273 120 216 242 195 185 199 190 185 197 204 207 199 195 197 199 197 198 204 206 212 212 213 214 216 216 220 222 223 219 220 223 229 228
201 222 172 196 178 197 209 217 197 208 336 299 91 307 179 209 201 206 203 201 205 209 200 198 195 198 199 201 201 205 210 211 214 216 215 217 222 223 224 225 223 223 223 227
209 225 192 179 210 179 214 187 153 167 124 216 147 269 258 201 208 204 200 200 205 213 211 202 203 206 206 205 205 208 209 208 215 216 212 211 212 211 224 228 227 226 225 227
207 180 182 206 206 163 220 154 182 168 190 173 219 276 254 155 208 216 214 207 205 208 208 207 200 208 210 207 204 204 207 209 211 212 213 214 212 221 225 230 231 228 224 229
192 192 187 197 170 176 160 98 61 52 111 242 212 177 238 186 209 216 227 218 211 211 214 211 210 207 211 210 207 204 202 206 208 210 211 213 212 216 222 226 221 218 219 224
188 216 189 153 167 171 141 103 289 298 197 239 174 195 230 209 203 204 214 219 215 212 211 213 209 197 202 200 202 200 201 206 206 209 211 212 217 218 223 224 219 217 220 225
179 219 205 186 191 185 184 160 162 203 219 228 118 235 241 202 208 220 222 218 212 213 212 212 210 204 201 201 200 199 200 205 204 207 210 213 217 217 223 225 226 222 224 229
173 236 227 182 160 172 193 194 176 80 271 25 219 309 307 188 212 212 225 226 218 213 214 215 212 208 208 202 201 199 200 204 203 206 209 210 214 215 219 224 228 228 228 231
222 209 206 203 126 192 162 160 141 33 196 244 275 248 223 202 202 201 216 218 225 217 214 216 212 212 210 207 203 202 203 202 203 205 206 208 212 217 219 224 228 228 230 231
9 124 310 127 200 195 154 179 111 148 167 203 24 252 210 210 219 214 210 209 218 214 217 215 211 210 208 208 201 201 202 202 202 204 205 206 209 213 214 220 228 231 230 230
358 94 218 200 201 226 214 199 156 162 222 248 181 245 210 231 203 199 218 217 218 216 214 210 209 205 201 203 201 198 200 202 204 202 203 205 208 209 211 218 226 230 229 229
332 358 80 48 303 164 192 214 184 216 114 219 200 243 245 206 173 229 241 251 241 235 232 215 200 199 197 197 200 199 200 203 202 199 201 202 204 205 209 216 219 228 228 229
52 90 103 217 299 355 306 275 204 207 225 232 231 260 275 289 248 246 243 236 226 223 238 208 192 199 197 196 197 197 200 203 201 200 201 202 203 205 210 213 214 223 227 227
74 84 348 245 285 252 247 255 264 234 225 221 240 240 238 240 234 231 234 234 243 246 231 217 197 196 194 192 195 198 199 196 197 199 202 206 204 207 209 209 213 217 222 226
353 265 121 278 267 296 281 264 256 249 240 258 263 254 212 214 216 232 246 237 233 242 241 222 209 202 191 193 193 194 193 194 192 197 205 206 203 204 206 208 209 212 219 220
312 161 71 262 305 320 297 254 234 231 201 211 242 230 212 238 219 220 235 239 235 237 234 231 211 201 199 197 194 194 197 191 194 199 201 202 201 203 204 204 205 210 211 215
233 204 152 239 313 245 246 311 283 240 233 215 223 236 205 220 235 224 220 222 229 234 237 227 232 216 212 205 198 201 192 193 195 198 201 198 197 203 203 201 205 208 207 208
206 178 249 200 213 297 304 345 22 59 287 261 220 215 214 234 282 270 204 209 226 230 225 225 225 220 203 198 198 191 186 193 198 202 202 197 198 202 199 201 207 207 205 206
194 207 223 160 205 228 260 152 255 194 254 13 325 222 223 161 219 250 245 200 225 229 229 230 225 213 200 204 191 181 185 190 199 201 202 201 200 201 202 205 206 206 206 208
150 192 212 228 249 279 241 306 288 196 288 321 318 289 283 193 216 229 144 192 211 202 187 353 78 56 4 224 187 189 192 198 207 205 204 202 202 203 208 207 205 204 205 203
180 174 193 208 235 237 31 311 203 333 314 304 300 279 270 252 176 182 121 93 86 87 62 72 83 64 64 147 182 183 200 217 213 207 207 209 207 206 204 202 198 200 195 201
232 221 206 199 214 234 166 213 263 280 285 301 291 284 259 216 188 137 106 80 61 68 67 71 78 70 53 70 140 164 24 255 217 213 213 213 212 210 210 200 193 180 184 202
252 252 241 274 261 224 217 257 259 289 283 302 282 301 337 109 72 95 90 84 81 71 82 89 86 69 58 60 64 59 46 312 266 233 228 220 216 211 208 207 200 209 212 195
251 324 270 286 257 252 192 251 291 294 9 310 316 58 30 82 82 89 82 80 82 89 91 98 95 88 77 72 65 56 49 52 64 219 233 220 216 204 201 201 213 214 216 211
198 237 212 233 243 207 232 302 301 291 33 315 9 66 54 53 81 86 76 70 71 58 55 66 76 87 84 72 71 73 65 53 57 74 146 199 199 190 186 173 164 207 205 196